[[{"header":{"parameterUnit":"m.s-1","parameterCategory":1,"la1":30.2992,"la2":30.254,"lo1":-89.0895,"lo2":-89.0443,"dy":0.0025,"dx":0.0025,"nx":19,"ny":19,"refTime":"2026-03-20T03:00:00:Z","depth":0,"parameterNumber":2,"parameterNumberName":"U-component_of_WINDS"},"data":[0,0,0,3.5143,3.5149,3.5421,3.5422,3.5766,3.5769,0,0,0,0,0,0,0,0,0,0,0,3.5061,3.5063,3.5143,3.515,3.5421,3.5422,3.5765,3.5769,0,0,0,0,0,0,0,0,0,0,0,3.506,3.5063,3.5066,3.5151,3.5421,3.5422,3.5764,3.5561,0,0,0,0,0,0,0,0,0,0,3.5297,3.522,3.5062,3.5066,3.5152,3.542,3.5422,3.5551,3.5573,3.5641,0,3.5701,0,3.574,3.5791,3.5793,0,0,0,3.5151,3.5202,3.5276,3.5066,3.5155,3.542,3.5299,3.5563,3.5589,3.5671,3.5706,3.5719,3.5746,3.5794,3.5795,3.618,3.6181,0,0,3.5136,3.5109,3.5259,3.5292,3.5251,3.529,3.5307,3.5579,3.5616,3.5707,3.5727,3.5752,3.5796,3.5799,3.6178,3.618,0,0,0,3.5092,3.5099,3.5167,3.5278,3.5327,3.5298,3.5318,3.5604,3.5628,3.5731,3.5756,3.5798,3.5802,3.6176,3.6179,3.6236,0,0,0,3.5083,3.5073,3.516,3.5147,3.5322,3.5469,3.5336,3.5609,3.5641,3.5754,3.5798,3.5805,3.6174,3.6177,3.6231,3.6268,0,0,0,3.5044,3.5069,3.5107,3.5145,3.526,3.5465,3.5505,3.5617,3.5656,3.5793,3.5806,3.6173,3.6177,3.6226,3.6259,3.6358,0,0,0,3.4995,3.5157,3.5108,3.5298,3.5258,3.5499,3.5504,3.5686,3.581,3.58,3.6175,3.6178,3.6224,3.6255,3.6353,3.6435,3.6467,0,0,3.5184,3.5179,3.5293,3.5257,3.5499,3.546,3.5712,3.5852,3.589,3.6081,3.609,3.6232,3.6259,3.6357,3.6662,3.6688,0,0,0,3.5344,3.5425,3.5495,3.5612,3.5722,3.5818,3.5922,3.5973,3.6136,3.5983,3.6297,3.6314,3.6372,3.6413,3.6434,3.6485,3.6197,3.6196,3.6196,3.5573,3.5612,3.5802,3.5872,3.5985,3.6089,3.6183,3.627,3.6278,3.6351,3.6407,3.6588,3.6634,3.665,3.6703,3.6456,3.6456,3.6456,3.6457,3.5852,3.5972,3.5975,3.6161,3.6199,3.6356,3.6461,3.6461,3.6611,3.6549,3.6603,3.653,3.6677,3.6725,3.6461,3.6461,3.646,3.6459,3.6459,3.6005,3.6068,3.6127,3.6297,3.6424,3.649,3.6632,3.6664,3.6695,3.6748,3.6808,3.6807,3.6808,3.6775,3.6775,3.6776,3.6777,3.6777,3.6778,3.6139,3.6203,3.632,3.6447,3.6524,3.663,3.6734,3.6811,3.6903,3.6915,3.6916,3.6913,3.6686,3.6625,3.6787,3.6786,3.6784,3.6783,3.6783,3.6403,3.6348,3.6527,3.6604,3.6755,3.6876,3.6914,3.7067,3.7135,3.7203,3.719,3.7017,3.7014,3.6997,3.6947,3.7183,3.7183,3.7183,3.7183,3.653,3.6531,3.6719,3.6839,3.6961,3.7013,3.7211,3.7293,3.7369,3.7413,3.7384,3.7321,3.7303,3.7311,3.7287,3.7241,3.7546,3.7546,3.7547,3.6693,3.6707,3.687,3.6943,3.7062,3.7164,3.735,3.7487,3.7562,3.7562,3.7447,3.7431,3.7332,3.7298,3.7293,3.7256,3.7172,0,0]},{"header":{"parameterUnit":"m.s-1","parameterCategory":1,"la1":30.2992,"la2":30.254,"lo1":-89.0895,"lo2":-89.0443,"dy":0.0025,"dx":0.0025,"nx":19,"ny":19,"refTime":"2026-03-20T03:00:00:Z","depth":0,"parameterNumber":3,"parameterNumberName":"V-component_of_WINDS"},"data":[0,0,0,1.3055,1.3057,1.3142,1.3143,1.3256,1.3257,0,0,0,0,0,0,0,0,0,0,0,1.3033,1.3034,1.3055,1.3057,1.3142,1.3143,1.3255,1.3257,0,0,0,0,0,0,0,0,0,0,0,1.3032,1.3033,1.3034,1.3058,1.3142,1.3143,1.3255,1.319,0,0,0,0,0,0,0,0,0,0,1.3106,1.3088,1.3033,1.3034,1.3058,1.3142,1.3143,1.3186,1.3194,1.3219,0,1.3242,0,1.3251,1.3265,1.3265,0,0,0,1.3056,1.3082,1.3102,1.3035,1.3059,1.3142,1.3104,1.319,1.3199,1.3229,1.3244,1.3248,1.3253,1.3265,1.3266,1.3416,1.3416,0,0,1.3051,1.305,1.3097,1.3108,1.3095,1.3101,1.3106,1.3195,1.3212,1.3244,1.325,1.3255,1.3266,1.3267,1.3415,1.3416,0,0,0,1.3039,1.3047,1.3065,1.3103,1.3118,1.3103,1.311,1.3208,1.3214,1.3251,1.3256,1.3267,1.3268,1.3414,1.3415,1.3453,0,0,0,1.3036,1.3039,1.3063,1.3063,1.3117,1.3164,1.312,1.3208,1.3218,1.3256,1.3267,1.3269,1.3413,1.3415,1.345,1.3471,0,0,0,1.3026,1.3038,1.3051,1.3063,1.3099,1.3163,1.3174,1.321,1.3221,1.3265,1.327,1.3413,1.3414,1.3447,1.3467,1.351,0,0,0,1.3016,1.3085,1.3052,1.313,1.3098,1.3185,1.3173,1.3238,1.328,1.3267,1.3413,1.3415,1.3446,1.3464,1.3507,1.3546,1.3562,0,0,1.3102,1.3095,1.3141,1.3114,1.3206,1.3172,1.3269,1.331,1.3315,1.3382,1.3385,1.3451,1.3467,1.3509,1.3651,1.3664,0,0,0,1.3167,1.32,1.3225,1.3264,1.3296,1.3325,1.335,1.3364,1.342,1.3349,1.3477,1.3487,1.3512,1.3531,1.3542,1.3563,1.3424,1.3423,1.3423,1.3288,1.329,1.3365,1.3377,1.3416,1.344,1.3471,1.3495,1.3487,1.3517,1.3537,1.3623,1.3644,1.3652,1.3675,1.3557,1.3557,1.3557,1.3557,1.3414,1.346,1.3446,1.3514,1.3515,1.3572,1.3597,1.3589,1.3642,1.3608,1.363,1.3594,1.3666,1.3686,1.356,1.356,1.3559,1.3559,1.3559,1.3494,1.3516,1.3532,1.3588,1.3631,1.364,1.3691,1.369,1.369,1.3712,1.3732,1.3732,1.3731,1.3721,1.3722,1.3722,1.3722,1.3722,1.3723,1.3571,1.3587,1.363,1.3667,1.3691,1.3723,1.3746,1.377,1.3796,1.3792,1.3792,1.378,1.3673,1.3646,1.3727,1.3726,1.3726,1.3725,1.3725,1.3699,1.3669,1.3736,1.376,1.3802,1.3844,1.3842,1.389,1.3909,1.3934,1.3917,1.3837,1.3831,1.3822,1.38,1.3916,1.3916,1.3916,1.3916,1.3767,1.3762,1.3829,1.3867,1.3905,1.3908,1.3982,1.4,1.4013,1.4025,1.4008,1.3978,1.3969,1.3968,1.3956,1.3935,1.4084,1.4084,1.4084,1.3845,1.3844,1.3908,1.392,1.3952,1.398,1.4049,1.4093,1.4102,1.4091,1.4034,1.4027,1.3979,1.3963,1.3953,1.3934,1.3896,0,0]}]]